Miscellaneous Local Product
Issued by NWS North Platte, NE

Home | Current Version | Previous Version | Text Only | Print | Product List | Glossary On
Versions: 1 2 3 4 5 6 7 8 9 10 11 12 13 14 15 16 17 18 19 20 21 22 23 24 25 26 27 28 29 30 31 32 33 34 35 36 37 38 39 40 41 42 43 44 45 46 47 48 49 50
000
AXUS43 KLBF 222010
MISLBF


WESTERN AND NORTH CENTRAL NEBRASKA HOURLY WEATHER ROUNDUP
NATIONAL WEATHER SERVICE NORTH PLATTE NE
300 PM CDT MON SEP 22 2014

***STATIONS NOT REPORTING VARIABLES SUCH AS SKY/WEATHER OR
PRESSURE ARE PROVIDED BY THE NEBRASKA DEPARTMENT OF
ROADS...RAWS...AND APRS NETWORKS...AND ARE NOT UNDER
NATIONAL WEATHER SERVICE QUALITY CONTROL***

...OBSERVATIONS IN AND NEAR THE EASTERN PANHANDLE OF NEBRASKA...

CITY           SKY/WX    TMP DP  RH WIND       PRES   REMARKS
PINE RIDGE     CLOUDY    69  50  50 S21G37    30.03F
CHADRON        CLOUDY    74  53  48 S24G30    30.00F
ALLIANCE       CLOUDY    68  54  60 SE20      30.10F
SIDNEY         CLOUDY    69  53  56 S21G29    30.13F
WHITECLAY        N/A     68  50  51 S14         N/A
RUSHVILLE        N/A     65  48  52 S25         N/A
LISCO            N/A     76  55  46 E20         N/A
BIG SPRINGS      N/A     59  55  85 S8          N/A
$$

...OBSERVATIONS IN NORTH CENTRAL NEBRASKA...

CITY           SKY/WX    TMP DP  RH WIND       PRES   REMARKS
VALENTINE      PTSUNNY   71  45  39 S16G29    30.11F
THEDFORD       DRIZZLE   70  47  44 S17G28    30.17S
AINSWORTH      PTSUNNY   69  45  41 S17       30.15F
O`NEILL        PTSUNNY   74  50  42 S17G23    30.18F
ORD            PTSUNNY   72  49  44 S14G21    30.19F
BROKEN BOW     PTSUNNY   73  47  39 S18G25    30.19F
SPRINGVIEW       N/A     74  50  42 SW9G20      N/A
ROSE             N/A     76  53  44 E13         N/A
NEWPORT          N/A     75  47  37 S21         N/A
COMSTOCK         N/A     77  52  40 S9          N/A
CHAMBERS         N/A     75  50  41 S9          N/A
$$

...OBSERVATIONS IN SOUTHWEST NEBRASKA AND FAR NORTHEAST COLORADO...

CITY           SKY/WX    TMP DP  RH WIND       PRES   REMARKS
WRAY           FAIR      75  52  43 S21G31    30.14F
HOLYOKE        FAIR      68  55  64 SE15G22   30.12F
IMPERIAL       CLOUDY    64  54  69 SE13      30.14F
OGALLALA       LGT RAIN  59  55  88 S10       30.15F
NORTH PLATTE   LGT RAIN  59  52  77 SE8       30.17F
MCCOOK         CLOUDY    76  44  32 SE15G24   30.18F
LEXINGTON      CLOUDY    73  47  40 S17       30.20F
PAXTON           N/A     63  52  67 SE6         N/A
SUTHERLAND       N/A     59  51  75 SE6         N/A
BRADY            N/A     67  49  52 CALM        N/A
GOTHENBURG       N/A     70  43  37 S9          N/A
CALLAWAY         N/A     70  51  50 S16         N/A
$$

...SOME WEATHER OBSERVATIONS FROM AROUND THE REGION...

CITY           SKY/WX    TMP DP  RH WIND       PRES   REMARKS
DENVER         PTSUNNY   77  52  41 S7        30.13F
LARAMIE        PTSUNNY   62  44  51 W12       30.25F
CHEYENNE       CLOUDY    65  53  65 W10       30.19F
SCOTTSBLUFF    PTSUNNY   77  52  41 SE12      30.06F
RAPID CITY     PTSUNNY   78  48  34 S20G31    29.95F
PIERRE         PTSUNNY   81  46  29 S23G35    30.01F
WINNER         CLOUDY    80  44  27 S26G36    30.09F
SIOUX FALLS    PTSUNNY   72  45  37 S12       30.19F
OMAHA          MOSUNNY   72  49  44 SE7       30.24F
GRAND ISLAND   PTSUNNY   73  49  42 S13       30.23F
KANSAS CITY    MOSUNNY   72  51  47 E5        30.27F
WICHITA        MOSUNNY   79  43  27 S9        30.24F
HAYS           MOSUNNY   77  46  33 SE18      30.22F
LIBERAL        MOSUNNY   79  46  31 S17G23    30.24F
GOODLAND       CLOUDY    73  49  42 S21G31    30.18F
$$



USA.gov is the U.S. government's official web portal to all federal, state and local government web resources and services.